Flag for Malaysia Weather past 2 weeks in Johor Bahru, Malaysia

Now
86 °F

Partly sunny.


Feels Like: 93 °F
Forecast: 79 / 89 °F
Wind: 9 mph from South

Location: Singapore / Paya Lebar

Current Time: Jul 6, 2015 at 7:55:12 PM

Latest Report: Jul 6, 2015 at 7:00 PM


Visibility: N/A

Pressure: 29.71 "Hg

Humidity: 66%

Dew point: 73 °F

Location of Johor BahruLocation

Historic Weather in Johor Bahru — Graph

°F

Johor Bahru temperature yesterday

Maximum temperature yesterday: 90 °F (at 12:00 PM)
Minimum temperature yesterday: 82 °F (at 5:00 AM)
Average temperature yesterday: 86 °F

Past Weeks' High & Low Weather Summary

 TemperatureHumidityPressure
High91 °F (Jun 22, 1:00 PM)94% (Jul 4, 8:00 AM)29.98 "Hg (Jul 4, 8:00 AM)
Low73 °F (Jul 4, 8:00 AM)49% (Jun 30, 2:00 PM)29.71 "Hg (Jul 6, 4:00 PM)
Average86 °F72%29.85 "Hg
* Reported Jun 21 6:00 PM — Jul 6 6:00 PM, Johor Bahru, Weather by CustomWeather, © 2015

Note: Actual official high and low records may vary slightly from our data, if they occured in-between our weather recording intervals... More about our weather records

Advertising

Johor Bahru weather history for previous 24 hours

 ConditionsComfort  
Time TempWeatherWind HumidityBarometerVisibility
6:00 PM
Mon, Jul 6
88 °FPartly sunny.10 mph62%29.71 "HgN/A
5:00 PM90 °FPartly sunny.13 mph59%29.71 "HgN/A
4:00 PM90 °FPartly sunny.12 mph59%29.71 "HgN/A
3:00 PM90 °FPartly sunny.13 mph59%29.74 "HgN/A
2:00 PM88 °FBroken clouds.13 mph66%29.77 "HgN/A
1:00 PM86 °FSprinkles. Broken clouds.9 mph75%29.77 "HgN/A
12:00 PM88 °FBroken clouds.10 mph66%29.80 "HgN/A
11:00 AM88 °FBroken clouds.10 mph66%29.80 "HgN/A
10:00 AM86 °FPartly sunny.12 mph70%29.80 "HgN/A
9:00 AM84 °FPartly sunny.8 mph79%29.80 "HgN/A
8:00 AM84 °FPartly sunny.7 mph79%29.80 "HgN/A
7:00 AM82 °FPassing clouds.7 mph84%29.80 "HgN/A
6:00 AM82 °FPassing clouds.8 mph84%29.80 "HgN/A
5:00 AM82 °FPassing clouds.8 mph79%29.77 "HgN/A
11:00 PM
Sun, Jul 5
84 °FPassing clouds.9 mph79%29.83 "HgN/A
10:00 PM84 °FPassing clouds.9 mph79%29.80 "HgN/A
9:00 PM84 °FPassing clouds.9 mph74%29.77 "HgN/A
8:00 PM86 °FPassing clouds.8 mph66%29.77 "HgN/A
7:00 PM86 °FPartly sunny.10 mph66%29.77 "HgN/A
Weather by CustomWeather, © 2015

See weather overviewHow to use our weather pages